Tracking 31027 objects as of 19-Jul-2025
HD Live streaming from Space Station
objects crossing your sky now

NOAA 16 DEB

Track NOAA 16 DEB now!
10-day predictions


NORAD ID: 41292
Int'l Code: 2000-055GU
Perigee: 700.8 km
Apogee: 750.2 km
Inclination: 99.0 °
Period: 99.2 minutes
Semi major axis: 7096 km
RCS: Unknown
Launch date: September 21, 2000
Source: United States (US)
Launch site: AIR FORCE WESTERN TEST RANGE (AFWTR)

Note: This is SATELLITE DEBRIS
Your satellite tracking list
IRIDIUM 135
Track 1 satellite(s)




NASA's NSSDC Master Catalog

Two Line Element Set (TLE):
1 41292U 00055GU  25199.41489550  .00005239  00000-0  12924-2 0  9999
2 41292  98.9868  46.5268 0034759 318.9616  40.8962 14.52234853499278
Source of the keplerian elements: AFSPC